Hourly Data Report for October 18, 2014

All times are specified in Local Standard Time (LST). Add 1 hour to adjust for Daylight Saving Time where and when it is observed.

MONCTON INTL A
NEW BRUNSWICK

46°06'44.000" N
64°40'43.000" W
70.70 m
8103201
71705
YQM

Download Data

Hourly Data (October 2014)
Hourly Data Report for October 18, 2014
Temp Definition
°C
Dew Point Temp Definition
°C
Rel Hum Definition
%
Wind Dir Definition
10's deg

Wind Spd Definition
km/h
Visibility Definition
km
Stn Press Definition
kPa
Hmdx Definition


Wind Chill Definition


Weather Definition


TIME
00:00 Legend Double Dagger 12.4 11.0 91 18 9 24.1 99.65     LegendNANA
01:00 Legend Double Dagger 12.4 11.3 93 16 7 24.1 99.67     LegendNANA
02:00 Legend Double Dagger 12.4 11.3 93 15 8 24.1 99.60     Clear
03:00 Legend Double Dagger 12.0 11.1 94 16 13 24.1 99.60     LegendNANA
04:00 Legend Double Dagger 11.8 10.9 94 16 9 24.1 99.61     LegendNANA
05:00 Legend Double Dagger 11.7 10.9 95 15 9 24.1 99.60     Clear
06:00 Legend Double Dagger 12.0 11.4 96 17 8 24.1 99.59     LegendNANA
07:00 Legend Double Dagger 12.2 11.4 95 18 13 11.3 99.63     LegendNANA
08:00 Legend Double Dagger 13.9 12.5 91 17 12 16.1 99.64     Mainly Clear
09:00 Legend Double Dagger 14.6 12.8 89 17 17 24.1 99.61     LegendNANA
10:00 Legend Double Dagger 14.3 12.4 88 17 17 24.1 99.61     LegendNANA
11:00 Legend Double Dagger 15.1 12.5 84 18 16 24.1 99.55     Mostly Cloudy
12:00 Legend Double Dagger 16.6 12.0 74 16 18 24.1 99.49     LegendNANA
13:00 Legend Double Dagger 19.2 12.1 63 21 15 24.1 99.40     LegendNANA
14:00 Legend Double Dagger 18.5 11.7 64 20 21 24.1 99.36     Mostly Cloudy
15:00 Legend Double Dagger 18.5 11.4 63 21 20 24.1 99.30     LegendNANA
16:00 Legend Double Dagger 18.0 10.9 63 22 13 24.1 99.25     LegendNANA
17:00 Legend Double Dagger 17.0 11.1 68 19 6 24.1 99.21     Mostly Cloudy
18:00 Legend Double Dagger 15.3 11.7 79 15 9 24.1 99.20     LegendNANA
19:00 Legend Double Dagger 13.6 11.7 88 13 12 24.1 99.18     LegendNANA
20:00 Legend Double Dagger 13.1 11.4 89 15 9 24.1 99.14     Mainly Clear
21:00 Legend Double Dagger 13.2 11.6 90 16 11 24.1 99.13     LegendNANA
22:00 Legend Double Dagger 12.4 11.3 93 15 5 24.1 99.05     LegendNANA
23:00 Legend Double Dagger 11.3 10.5 95 18 9 16.1 99.02     Mainly Clear

Notes on Data Quality.

Legend

  • E = Estimated
  • M = Missing
  • NA = Not Available
  • ‡ = Partner data that is not subject to review by the National Climate Archives
Date modified: